Weather History for Flag Island, MN

Change the Weather History Date:

Saturday, October 26, 2013

  Actual Average Record
Temperature  
Mean Temperature 37 °F -  
Max Temperature 39 °F 39 °F 53 °F (2010)
Min Temperature 35 °F 31 °F 15 °F (1997)
Degree Days  
Heating Degree Days 28    
Moisture  
Dew Point 30 °F    
Average Humidity 75    
Maximum Humidity 93    
Minimum Humidity 56    
Precipitation  
Precipitation 0.00 in - - ()
Sea Level Pressure  
Sea Level Pressure 29.95 in    
Wind  
Wind Speed 18 mph (WNW)    
Max Wind Speed 25 mph    
Max Gust Speed 33 mph    
Visibility 10 miles    
Events Rain , Snow    
Averages and records for this station are not official NWS values.
T = Trace of Precipitation, MM = Missing Value Source: NWS Daily Summary

Daily Weather History Graph

Daily Weather History Graph

Search for Another Location

Airport:

Trip Planner

Search our weather history database for the weather conditions in past years. The results will help you decide how hot, cold, wet, or windy it might be!

Date:

Astronomy

Oct. 26, 2013 Rise Set
Actual Time 7:58 AM CDT 6:07 PM CDT
Civil Twilight 7:25 AM CDT 6:40 PM CDT
Nautical Twilight 6:48 AM CDT 7:18 PM CDT
Astronomical Twilight 6:11 AM CDT 7:54 PM CDT
Moon No Moon Rise 2:19 PM CDT (10/26)
Length of Visible Light 11h 15m
Length of Day
10h 09m
Waning Gibbous, 53% of the Moon is Illuminated
Oct 26
Waning Gibbous
Oct 26
Last Quarter
Nov 3
New
Nov 9
First Quarter
Nov 17
Full

Hourly Weather History & Observations

Time (CDT) Temp. Windchill Dew Point Humidity Pressure Visibility Wind Dir Wind Speed Gust Speed Precip Events Conditions
12:13 AM 37.4 °F 26.1 °F 33.8 °F 87% 29.79 in 10.0 mi WNW 24.2 mph 29.9 mph N/A   Overcast
12:33 AM 37.4 °F 26.1 °F 33.8 °F 87% 29.80 in 10.0 mi NW 24.2 mph 33.4 mph N/A   Overcast
12:54 AM 37.4 °F 26.4 °F 33.8 °F 87% 29.80 in 10.0 mi WNW 23.0 mph 29.9 mph N/A   Overcast
1:13 AM 37.4 °F 26.4 °F 33.8 °F 87% 29.82 in 10.0 mi NW 23.0 mph 31.1 mph N/A   Overcast
1:33 AM 37.4 °F 25.9 °F 33.8 °F 87% 29.82 in 10.0 mi NW 25.3 mph 31.1 mph N/A   Mostly Cloudy
1:54 AM 37.4 °F 26.4 °F 33.8 °F 87% 29.82 in 10.0 mi WNW 23.0 mph 28.8 mph N/A   Scattered Clouds
2:13 AM 37.4 °F 26.4 °F 33.8 °F 87% 29.82 in 10.0 mi WNW 23.0 mph - N/A   Mostly Cloudy
2:33 AM 37.4 °F 26.9 °F 33.8 °F 87% 29.83 in 10.0 mi WNW 20.7 mph 26.5 mph N/A   Overcast
2:54 AM 37.4 °F 26.1 °F 33.8 °F 87% 29.84 in 10.0 mi WNW 24.2 mph 32.2 mph N/A   Overcast
3:13 AM 37.4 °F 26.4 °F 33.8 °F 87% 29.85 in 10.0 mi WNW 23.0 mph 28.8 mph N/A   Overcast
3:34 AM 37.4 °F 27.2 °F 33.8 °F 87% 29.86 in 10.0 mi NW 19.6 mph 24.2 mph N/A   Overcast
3:53 AM 37.4 °F 26.6 °F 33.8 °F 87% 29.86 in 10.0 mi NW 21.9 mph 29.9 mph N/A   Overcast
4:13 AM 37.4 °F 25.9 °F 33.8 °F 87% 29.87 in 10.0 mi WNW 25.3 mph 29.9 mph N/A   Overcast
4:34 AM 37.4 °F 27.2 °F 33.8 °F 87% 29.88 in 10.0 mi NW 19.6 mph 28.8 mph N/A   Overcast
4:53 AM 37.4 °F 26.9 °F 33.8 °F 87% 29.89 in 10.0 mi NW 20.7 mph 27.6 mph N/A Rain Light Rain
5:13 AM 37.4 °F 26.9 °F 33.8 °F 87% 29.90 in 10.0 mi NW 20.7 mph - N/A Rain Light Rain
5:33 AM 37.4 °F 27.8 °F 33.8 °F 87% 29.91 in 7.0 mi NW 17.3 mph - N/A   Overcast
5:53 AM 37.4 °F 27.8 °F 33.8 °F 87% 29.91 in 10.0 mi NW 17.3 mph - N/A   Overcast
6:14 AM 35.6 °F 24.5 °F 33.8 °F 93% 29.93 in 10.0 mi NW 20.7 mph 26.5 mph N/A   Overcast
6:33 AM 37.4 °F 26.9 °F 33.8 °F 87% 29.93 in 10.0 mi NW 20.7 mph - N/A   Mostly Cloudy
6:53 AM 37.4 °F 27.2 °F 33.8 °F 87% 29.94 in 10.0 mi NNW 19.6 mph - N/A   Mostly Cloudy
7:13 AM 37.4 °F 27.2 °F 32.0 °F 81% 29.95 in 10.0 mi NNW 19.6 mph - N/A   Overcast
7:33 AM 37.4 °F 27.2 °F 32.0 °F 81% 29.96 in 10.0 mi North 19.6 mph - N/A   Overcast
7:54 AM 35.6 °F 24.5 °F 30.2 °F 81% 29.98 in 4.0 mi North 20.7 mph 26.5 mph N/A Snow Light Snow
8:13 AM 35.6 °F 24.5 °F 30.2 °F 81% 29.99 in 10.0 mi North 20.7 mph - N/A   Mostly Cloudy
8:33 AM 35.6 °F 25.2 °F 30.2 °F 81% 30.00 in 10.0 mi North 18.4 mph 27.6 mph N/A   Mostly Cloudy
8:54 AM 35.6 °F 24.0 °F 30.2 °F 81% 30.01 in 10.0 mi NNW 23.0 mph 29.9 mph N/A   Overcast
9:13 AM 35.6 °F 25.9 °F 30.2 °F 81% 30.02 in 10.0 mi NNW 16.1 mph - N/A   Overcast
9:33 AM 35.6 °F 25.5 °F 28.4 °F 75% 30.03 in 10.0 mi North 17.3 mph - N/A   Scattered Clouds
9:53 AM 35.6 °F 25.5 °F 28.4 °F 75% 30.04 in 10.0 mi NNW 17.3 mph - N/A   Scattered Clouds
10:13 AM 35.6 °F 24.8 °F 28.4 °F 75% 30.04 in 10.0 mi NNW 19.6 mph - N/A   Mostly Cloudy
10:33 AM 35.6 °F 25.2 °F 28.4 °F 75% 30.04 in 10.0 mi NNW 18.4 mph - N/A   Mostly Cloudy
10:53 AM 35.6 °F 26.2 °F 28.4 °F 75% 30.05 in 10.0 mi North 15.0 mph 19.6 mph N/A   Mostly Cloudy
11:13 AM 35.6 °F 26.6 °F 28.4 °F 75% 30.07 in 10.0 mi North 13.8 mph - N/A   Overcast
11:34 AM 35.6 °F 25.9 °F 28.4 °F 75% 30.07 in 10.0 mi NNW 16.1 mph - N/A   Overcast
11:53 AM 37.4 °F 28.5 °F 28.4 °F 70% 30.07 in 10.0 mi NW 15.0 mph 18.4 mph N/A   Overcast
12:13 PM 37.4 °F 28.5 °F 26.6 °F 65% 30.07 in 10.0 mi NNW 15.0 mph - N/A   Overcast
12:33 PM 35.6 °F 26.2 °F 28.4 °F 75% 30.07 in 10.0 mi NW 15.0 mph - N/A   Overcast
12:53 PM 35.6 °F 28.0 °F 28.4 °F 75% 30.07 in 10.0 mi NW 10.4 mph - N/A   Overcast
1:14 PM 37.4 °F 27.8 °F 28.4 °F 70% 30.07 in 10.0 mi NW 17.3 mph - N/A   Mostly Cloudy
1:33 PM 37.4 °F 28.9 °F 28.4 °F 70% 30.05 in 10.0 mi NW 13.8 mph - N/A   Mostly Cloudy
1:53 PM 37.4 °F 29.3 °F 28.4 °F 70% 30.06 in 10.0 mi NW 12.7 mph - N/A   Overcast
2:14 PM 37.4 °F 30.3 °F 26.6 °F 65% 30.05 in 10.0 mi NW 10.4 mph - N/A   Overcast
2:33 PM 37.4 °F 28.5 °F 26.6 °F 65% 30.04 in 10.0 mi NW 15.0 mph 18.4 mph N/A   Overcast
2:53 PM 37.4 °F 28.5 °F 26.6 °F 65% 30.05 in 10.0 mi NW 15.0 mph - N/A   Overcast
3:14 PM 37.4 °F 29.8 °F 26.6 °F 65% 30.04 in 10.0 mi WNW 11.5 mph - N/A   Overcast
3:33 PM 37.4 °F 29.8 °F 26.6 °F 65% 30.04 in 10.0 mi WNW 11.5 mph - N/A   Overcast
3:53 PM 37.4 °F 31.4 °F 26.6 °F 65% 30.03 in 10.0 mi NW 8.1 mph - N/A   Overcast
4:14 PM 39.2 °F 33.0 °F 26.6 °F 61% 30.02 in 10.0 mi NW 9.2 mph - N/A   Scattered Clouds
4:33 PM 39.2 °F 33.6 °F 24.8 °F 56% 30.03 in 10.0 mi West 8.1 mph - N/A   Scattered Clouds
4:53 PM 39.2 °F 33.6 °F 26.6 °F 61% 30.02 in 10.0 mi WNW 8.1 mph - N/A   Mostly Cloudy
5:14 PM 39.2 °F 34.2 °F 26.6 °F 61% 30.00 in 10.0 mi WNW 6.9 mph - N/A   Overcast
5:33 PM 39.2 °F 33.0 °F 26.6 °F 61% 29.99 in 10.0 mi West 9.2 mph - N/A   Overcast
5:53 PM 39.2 °F 32.5 °F 26.6 °F 61% 29.99 in 10.0 mi West 10.4 mph - N/A   Overcast
6:14 PM 37.4 °F 32.1 °F 26.6 °F 65% 29.98 in 10.0 mi West 6.9 mph - N/A   Mostly Cloudy
6:33 PM 37.4 °F 32.8 °F 26.6 °F 65% 29.98 in 10.0 mi West 5.8 mph - N/A   Scattered Clouds
6:53 PM 37.4 °F 34.9 °F 26.6 °F 65% 29.97 in 10.0 mi WSW 3.5 mph - N/A   Scattered Clouds
7:14 PM 37.4 °F 34.9 °F 26.6 °F 65% 29.96 in 10.0 mi WSW 3.5 mph - N/A   Scattered Clouds
7:33 PM 37.4 °F 32.8 °F 28.4 °F 70% 29.95 in 10.0 mi SW 5.8 mph - N/A   Mostly Cloudy
7:53 PM 37.4 °F 32.1 °F 28.4 °F 70% 29.94 in 10.0 mi SW 6.9 mph - N/A   Mostly Cloudy
8:14 PM 37.4 °F 31.4 °F 26.6 °F 65% 29.93 in 10.0 mi SW 8.1 mph - N/A   Scattered Clouds
8:33 PM 37.4 °F 32.8 °F 26.6 °F 65% 29.93 in 10.0 mi SW 5.8 mph - N/A   Mostly Cloudy
8:53 PM 37.4 °F 32.1 °F 28.4 °F 70% 29.91 in 10.0 mi SSW 6.9 mph - N/A   Overcast
9:14 PM 37.4 °F 31.4 °F 26.6 °F 65% 29.90 in 10.0 mi SW 8.1 mph - N/A   Overcast
9:33 PM 35.6 °F 29.2 °F 28.4 °F 75% 29.89 in 10.0 mi SW 8.1 mph - N/A   Overcast
9:53 PM 35.6 °F 28.6 °F 28.4 °F 75% 29.88 in 10.0 mi SSW 9.2 mph - N/A   Overcast
10:14 PM 37.4 °F 30.8 °F 28.4 °F 70% 29.87 in 10.0 mi SSW 9.2 mph - N/A   Overcast
10:33 PM 37.4 °F 30.8 °F 28.4 °F 70% 29.87 in 10.0 mi SSW 9.2 mph - N/A   Overcast
10:53 PM 37.4 °F 30.3 °F 28.4 °F 70% 29.86 in 10.0 mi SSW 10.4 mph - N/A   Overcast
11:13 PM 37.4 °F 30.8 °F 30.2 °F 75% 29.85 in 10.0 mi SSW 9.2 mph - N/A   Overcast
11:33 PM 37.4 °F 30.8 °F 30.2 °F 75% 29.85 in 10.0 mi SSW 9.2 mph - N/A   Overcast
11:54 PM 37.4 °F 31.4 °F 30.2 °F 75% 29.83 in 10.0 mi SSW 8.1 mph - N/A   Overcast